Location: Aufkirchen
(47.9603°N, 11.3653°E)
Time: 15:04:58
(UTC+01:00)

Transit 2A Rocket - Pass Details

Date: 13 December 2020
Orbit: 592 x 910 km, 66.7° (Epoch: 21 January)

Event Time Altitude Azimuth Distance (km) Brightness Sun altitude
Rises 22:56:21 0° 216° (SW) 3,477 - -61.3°
Reaches altitude 10° 22:58:55 10° 218° (SW) 2,511 - -61.6°
Maximum altitude 23:04:45 80° 305° (NW) 843 - -62.1°
Drops below altitude 10° 23:10:10 10° 33° (NNE) 2,330 - -62.6°
Sets 23:12:28 0° 35° (NE) 3,210 - -62.8°
